Wind_Speed
16 14 14 14 15 16 15 14 13 12 11 11 11 11 12 12 12 12 13 13 14 13 12 10 9 8 9 9 9 10 10 11 12 12 12 12 12 11 11 11 11 11 10 8 7 6 5 4 2 2 3 4 4 4 5 7 10 12 14 16 16 17 16 16 15 14 14 13 13 14 14 15 14 14 14 14 14 15 14 14 14 16 19 19 18
18 15 15 15 16 16 15 14 13 13 12 11 11 11 11 11 11 11 12 13 13 13 13 12 10 9 9 9 9 9 10 11 10 10 11 11 11 11 11 10 10 10 9 8 7 5 4 3 1 1 2 2 3 3 5 7 9 11 13 14 15 16 16 16 15 14 13 12 12 12 12 13 13 13 13 13 13 14 14 13 12 16 19 18 17
18 15 16 16 16 16 15 15 14 13 12 12 11 11 11 11 10 10 11 12 13 14 13 12 11 10 9 9 8 8 10 10 9 9 10 10 9 9 9 10 9 9 8 7 6 5 3 2 1 1 1 1 1 2 4 6 8 10 12 12 14 16 16 16 14 13 12 12 10 10 10 10 10 11 12 12 13 13 13 12 14 17 18 17 17
18 16 16 17 17 17 15 15 15 14 12 12 12 11 11 10 10 10 10 12 13 14 14 13 12 10 9 8 7 8 10 10 9 9 10 9 9 8 8 8 8 7 6 6 5 4 3 2 1 1 2 1 1 2 3 5 8 9 9 11 15 16 16 16 15 13 12 11 10 9 7 7 8 9 10 11 12 12 11 12 15 18 18 17 17
18 17 16 17 18 17 16 16 15 14 12 12 12 12 11 10 10 10 10 11 12 14 14 13 12 11 10 8 7 8 9 10 9 9 9 9 9 8 7 6 6 6 5 5 5 4 3 2 1 1 1 2 2 2 3 4 6 7 8 10 14 15 15 16 15 14 13 12 13 12 6 5 4 6 8 9 10 10 10 11 15 18 18 17 16
18 16 17 17 18 18 17 16 15 14 12 12 13 11 11 10 10 11 11 11 12 13 14 13 12 11 9 7 7 8 10 9 9 9 8 9 8 8 7 6 6 6 6 5 5 5 5 4 2 2 1 1 2 3 4 5 5 7 8 9 12 14 14 15 16 15 15 14 15 12 3 5 2 3 5 6 8 8 9 11 14 17 18 17 16
18 17 17 18 19 18 17 17 16 14 13 13 12 11 11 10 10 11 11 11 12 12 13 13 12 11 9 8 8 8 9 8 8 8 8 9 8 8 7 6 6 6 6 6 6 5 5 5 3 3 3 2 2 4 5 6 6 6 8 9 11 13 13 14 16 15 15 16 13 7 3 2 3 1 4 5 6 7 9 11 13 16 17 17 16
18 18 17 18 19 18 18 17 16 15 14 14 12 12 11 10 10 10 11 11 12 12 12 12 12 11 10 10 10 9 9 8 7 8 8 8 8 7 6 6 5 5 5 5 5 4 4 4 4 4 3 3 3 4 6 7 6 7 8 9 11 12 12 14 15 14 14 15 9 4 4 2 4 1 4 4 6 7 9 10 11 15 16 16 15
18 17 17 17 19 19 19 18 17 16 15 14 13 12 11 11 10 10 11 11 12 12 12 12 12 12 11 11 10 10 9 9 9 9 8 8 7 6 5 5 4 4 4 4 4 4 4 5 4 4 5 4 4 5 6 7 7 7 9 9 11 12 12 14 13 11 12 10 7 5 4 3 3 1 4 4 5 6 7 8 10 14 15 15 14
18 17 17 17 20 20 19 19 18 18 17 15 13 12 11 10 10 11 11 11 12 12 12 12 12 12 11 10 10 10 9 9 10 9 8 7 6 6 5 4 3 3 3 3 3 3 4 5 5 5 6 6 6 6 6 7 7 8 10 10 11 11 12 13 12 10 10 6 5 5 6 7 3 3 4 4 4 5 8 8 9 13 14 14 14
19 18 17 18 20 20 20 19 19 18 17 16 14 12 12 11 10 11 11 11 12 12 12 11 11 10 10 9 8 8 8 9 10 9 7 6 6 5 5 4 3 2 2 2 1 2 3 4 5 7 8 7 6 5 6 7 8 9 10 11 11 12 12 13 13 10 7 3 4 6 7 7 8 9 5 4 4 6 8 8 10 14 14 14 14
18 17 16 17 19 20 20 20 19 18 17 16 15 13 12 11 10 11 11 11 12 12 11 11 10 10 9 8 8 7 8 9 9 8 7 6 5 5 4 4 3 2 1 1 1 1 2 2 4 6 7 7 6 5 6 7 8 9 10 11 12 12 13 13 14 9 4 3 3 7 6 7 9 7 5 4 3 4 8 10 12 13 13 14 13
17 17 15 16 18 18 19 19 19 18 18 17 15 14 12 12 11 11 11 11 11 11 11 10 10 9 9 8 7 8 8 8 7 7 7 6 5 4 4 4 3 2 1 2 2 1 2 2 1 2 5 5 5 5 5 6 8 9 9 11 12 13 15 13 13 8 4 3 3 6 5 13 12 7 4 2 2 6 9 10 11 12 13 14 13
16 17 16 16 18 18 18 18 18 18 18 18 16 15 13 12 11 11 11 11 10 10 10 9 9 8 8 7 7 7 7 8 7 6 6 6 6 5 5 4 3 2 2 2 2 2 3 3 3 2 2 2 3 4 5 6 7 8 9 10 11 13 15 12 10 5 5 4 5 6 4 11 10 6 1 2 4 6 9 9 10 11 12 13 13
15 16 17 17 17 18 18 18 18 17 18 18 17 16 14 13 12 12 11 11 10 10 10 9 8 8 7 7 7 7 6 6 6 6 6 6 5 5 5 4 3 2 2 2 2 3 4 4 2 2 2 1 2 1 3 5 6 7 8 9 11 14 15 14 9 2 4 3 5 6 6 9 6 3 1 3 5 7 8 8 9 10 11 12 12
16 15 16 17 16 17 18 18 18 17 17 18 17 16 16 15 14 12 12 11 10 10 10 9 9 8 7 6 6 6 5 5 5 6 6 5 5 5 4 3 3 2 2 2 1 3 3 2 1 2 4 2 1 2 3 3 3 5 7 9 12 14 14 15 12 3 2 3 4 6 7 8 3 3 1 3 5 7 6 6 7 9 10 11 12
17 15 14 17 16 16 16 17 18 17 17 16 16 16 16 16 15 14 13 12 12 11 11 10 9 8 7 6 6 5 5 5 5 5 6 5 4 4 4 3 3 2 3 2 1 3 2 1 0 1 3 3 2 3 5 3 2 3 5 8 12 15 14 15 13 3 3 4 4 4 7 6 1 2 1 3 4 6 6 5 6 8 8 10 10
16 16 14 15 16 16 15 15 17 17 17 16 16 16 16 16 16 16 15 14 14 13 12 11 9 8 7 6 6 5 5 5 5 5 5 5 4 4 4 4 3 3 3 2 2 2 2 2 1 0 2 3 3 3 6 5 3 2 4 6 9 14 14 14 12 2 3 5 3 4 11 8 2 2 1 2 3 5 5 4 5 6 8 8 9
15 15 14 14 15 15 15 15 15 16 16 16 16 16 16 16 16 16 16 16 15 14 14 12 10 9 8 7 7 6 6 6 5 4 4 5 5 5 4 4 3 3 3 3 3 2 3 2 2 2 1 1 2 3 6 7 5 3 4 5 7 11 13 12 9 2 1 4 3 8 12 10 5 3 2 3 4 4 5 4 4 5 7 7 7
14 14 14 12 13 14 15 15 15 15 15 15 15 16 17 17 17 17 16 16 15 15 14 12 12 11 10 9 8 7 7 6 6 5 5 5 5 5 4 4 4 4 4 4 3 2 3 4 4 4 3 3 1 2 4 7 6 4 5 5 5 8 10 7 5 4 1 3 6 9 10 10 6 4 4 5 5 5 5 4 4 5 6 6 7
14 13 13 12 11 13 14 15 15 14 14 13 13 15 17 18 18 18 17 16 16 15 14 13 13 12 12 11 10 9 8 7 7 6 6 6 6 5 5 5 5 5 5 5 5 4 4 5 5 5 5 4 3 2 3 6 7 6 5 6 4 5 6 2 2 4 1 3 7 8 8 8 7 5 6 6 6 6 5 5 5 5 6 6 6
14 13 13 12 11 11 13 14 15 14 14 14 15 15 16 18 19 18 17 17 17 16 15 14 14 13 12 11 11 9 8 8 7 6 6 6 6 5 5 6 7 6 6 5 5 5 4 5 5 6 6 4 4 3 1 4 7 7 6 6 5 3 3 3 4 4 2 4 8 8 6 8 8 7 7 7 8 7 6 6 5 5 6 5 6
14 13 12 12 11 11 11 12 14 14 14 15 16 16 15 17 18 18 17 17 17 16 16 17 16 14 13 13 12 9 8 8 8 7 6 5 5 4 4 5 7 7 7 6 6 6 5 5 5 5 6 5 4 1 1 2 4 7 7 6 4 3 5 6 5 4 3 7 9 6 5 8 8 8 8 7 7 7 7 6 6 5 5 5 5
13 13 13 11 11 12 11 11 12 13 12 13 15 15 15 16 15 16 15 15 15 15 17 18 16 15 14 14 11 10 10 9 8 7 6 5 5 5 4 5 6 7 7 6 6 6 6 5 5 5 5 6 3 3 5 5 3 4 5 5 4 5 5 5 5 4 4 9 10 5 5 6 8 8 7 7 7 7 7 7 7 6 5 5 4
13 12 12 10 10 10 11 11 10 11 12 11 11 12 13 14 15 16 14 14 14 14 17 16 14 15 14 13 11 11 10 8 8 6 6 7 6 5 5 4 5 6 6 5 5 5 5 4 3 4 5 6 5 6 9 8 6 6 5 6 6 5 4 4 6 6 6 9 9 6 5 4 6 7 6 6 7 7 7 7 8 7 6 6 5
13 11 10 9 9 8 9 9 8 9 11 10 10 11 12 13 14 14 14 15 15 15 16 14 12 13 12 10 10 11 10 8 7 6 8 10 7 3 4 4 4 5 4 5 5 3 4 3 2 4 5 7 8 10 12 9 8 8 7 7 6 4 4 5 7 7 7 9 8 6 5 4 4 5 6 5 5 6 7 8 8 8 7 7 6
12 11 11 9 9 8 8 7 6 7 7 7 10 11 12 16 15 12 13 15 16 16 16 14 13 12 11 9 9 11 10 8 7 6 7 7 4 3 5 4 3 3 3 5 5 3 4 4 3 4 5 7 8 9 11 9 8 8 7 7 6 5 6 6 6 6 7 7 8 7 6 5 4 4 6 5 4 5 6 7 7 8 8 7 7
12 11 11 9 9 8 7 7 7 7 5 5 7 6 9 14 14 11 12 13 14 16 15 15 13 12 12 10 10 11 9 8 7 7 6 5 4 3 4 3 3 4 5 4 4 4 4 5 5 5 6 7 8 9 9 8 9 10 8 7 7 6 6 6 7 7 7 6 7 7 6 6 5 5 6 6 5 5 6 6 6 7 7 7 7
13 12 11 10 9 9 7 6 6 5 5 5 4 4 6 8 8 9 11 12 13 13 12 13 13 14 14 12 11 11 8 7 7 5 5 5 3 2 2 3 3 5 6 4 4 4 3 4 5 5 5 6 8 9 9 8 9 9 9 8 8 7 7 7 7 7 7 6 7 7 5 5 5 5 6 6 6 6 5 6 6 6 6 6 7
13 13 12 10 9 9 8 6 5 4 4 4 3 3 4 5 5 6 7 8 10 10 10 11 11 13 15 14 12 11 9 7 6 6 5 4 2 3 3 3 4 5 5 4 3 3 4 4 3 4 5 5 7 8 8 8 8 8 8 8 8 7 7 7 7 7 7 7 8 8 7 6 5 5 5 5 6 6 6 6 6 6 6 6 7
15 14 12 11 10 9 8 6 6 6 4 3 3 4 4 3 4 5 5 5 7 8 8 8 7 8 9 11 12 10 9 9 9 8 6 2 2 5 5 3 4 6 6 5 4 5 4 2 3 5 6 5 7 8 8 9 9 8 8 8 9 8 8 8 8 8 8 7 8 9 9 8 7 6 5 6 6 5 6 6 6 6 6 6 6
16 14 13 12 12 9 8 7 5 8 7 2 3 3 3 3 3 5 5 5 8 7 5 7 8 7 8 10 11 8 9 11 10 9 6 3 4 7 6 3 5 6 8 8 7 7 3 2 6 7 7 7 8 8 8 9 8 8 9 9 9 9 9 9 9 9 9 9 9 9 9 9 8 7 6 6 6 5 5 5 6 6 5 5 6
16 15 14 15 13 11 10 8 4 7 8 3 2 1 1 2 3 5 7 6 6 5 5 9 9 8 9 10 9 7 8 10 9 10 8 5 7 9 7 6 7 7 10 12 11 9 4 4 7 7 7 8 8 8 8 7 7 7 8 8 9 10 10 10 10 11 11 10 10 9 9 10 9 8 8 7 7 6 6 5 5 5 5 4 5
17 17 17 18 16 13 13 10 6 6 6 4 3 2 1 1 1 3 8 7 3 3 7 10 7 5 8 9 8 7 6 7 7 8 8 6 8 9 8 8 8 7 10 12 12 11 7 6 7 7 8 8 8 8 7 7 8 8 9 8 9 11 12 11 11 12 12 11 10 10 10 9 10 10 9 9 8 7 6 6 6 5 4 4 4
18 19 18 19 18 16 14 12 9 7 5 4 4 3 2 2 2 3 6 6 3 3 6 8 5 4 6 7 8 10 6 4 6 8 9 7 7 9 8 9 9 7 10 12 13 12 9 7 7 8 9 8 8 8 7 8 10 10 9 8 7 10 12 13 13 13 12 12 11 11 10 10 10 10 9 10 9 8 8 8 7 7 6 5 5
19 19 19 19 18 17 14 11 9 7 6 4 5 4 3 3 3 4 3 3 4 3 3 3 3 5 7 6 6 9 7 5 6 8 8 6 7 10 9 11 11 8 10 13 15 13 11 10 10 10 9 9 9 8 7 7 8 7 6 5 5 7 9 11 13 13 13 12 12 12 11 11 11 10 10 10 11 10 10 9 8 7 7 8 7
19 19 20 19 17 15 12 10 8 6 6 4 5 5 4 3 2 2 2 1 2 2 2 2 2 3 5 5 4 5 5 5 6 7 7 6 8 11 11 12 11 10 12 14 15 14 13 13 13 13 11 11 12 11 8 6 6 6 6 6 6 8 8 8 11 12 13 14 13 12 11 11 11 11 12 11 11 11 11 10 10 9 8 8 8
20 19 20 19 16 14 12 10 8 6 6 5 6 6 5 5 3 2 3 3 2 1 1 1 2 2 0 2 1 1 2 4 5 5 6 7 8 11 12 13 11 10 13 15 16 16 15 15 16 17 14 13 12 10 9 8 7 7 8 8 9 9 10 9 10 11 12 14 14 13 12 12 11 11 12 11 10 11 13 12 11 11 10 9 8
20 20 20 19 16 14 12 10 9 7 6 5 5 6 5 5 4 2 3 4 3 3 2 1 1 2 2 2 1 2 2 2 3 3 3 4 6 9 10 12 11 10 12 14 15 16 18 18 17 17 15 14 11 8 9 9 9 10 10 9 9 10 11 11 11 12 13 13 14 14 12 12 12 11 12 12 11 12 13 13 12 12 11 10 9
22 22 21 19 16 14 12 10 9 7 7 6 5 5 4 4 4 4 4 4 3 3 4 3 2 2 2 2 2 2 2 2 2 3 3 4 5 6 8 10 10 10 11 12 13 15 18 20 18 17 16 16 14 12 12 11 11 12 10 9 9 10 11 12 12 12 12 13 14 14 14 13 12 12 12 12 12 12 13 13 13 11 10 10 9
25 23 21 20 17 14 12 10 9 8 7 7 6 6 5 5 5 5 4 4 3 3 4 4 3 3 2 1 1 2 4 4 3 3 4 4 5 6 6 7 7 10 11 11 13 15 17 20 20 18 17 18 16 13 13 11 11 9 8 8 9 9 11 13 14 13 13 12 13 15 15 13 12 12 12 12 13 13 13 13 12 11 10 12 13
27 25 23 21 18 15 13 11 9 9 9 8 7 7 6 5 5 5 5 4 4 5 5 3 2 2 2 1 2 3 4 4 4 5 4 3 4 5 6 5 5 8 8 7 11 14 16 18 18 18 18 19 18 15 11 9 9 7 5 7 8 7 8 11 14 15 14 12 12 13 12 11 11 12 12 13 13 14 14 14 14 13 12 12 14
29 28 25 22 20 17 15 13 10 10 10 10 8 7 8 7 6 6 6 6 5 6 6 4 3 2 2 1 0 1 1 1 2 2 2 3 3 3 5 5 5 6 5 5 8 9 10 10 10 12 14 14 14 13 11 9 8 7 5 5 6 5 6 7 9 12 13 12 11 10 8 9 11 11 13 13 13 14 14 14 14 15 15 14 13
32 30 27 24 22 19 17 15 13 12 12 11 10 9 9 9 9 9 8 7 6 6 6 5 5 4 4 4 3 3 4 3 3 3 1 2 2 1 3 4 5 4 4 4 4 4 5 5 4 6 8 8 7 7 8 9 10 9 6 4 4 4 5 4 4 6 8 10 11 9 7 8 10 11 14 13 13 14 14 14 15 15 16 16 15
33 32 31 28 24 22 20 17 15 14 13 11 11 11 9 9 9 10 9 7 7 7 7 6 5 6 6 6 6 6 5 5 5 5 3 3 3 2 1 2 3 2 2 1 1 1 3 3 3 4 5 5 5 4 5 8 10 10 8 6 4 3 4 5 5 4 6 7 8 7 7 8 8 9 13 14 15 15 14 15 16 16 16 14 14
33 33 32 30 26 24 22 20 17 16 15 12 11 11 10 8 9 10 9 9 9 8 7 7 6 5 6 6 7 7 6 6 6 5 5 5 4 4 3 1 1 2 3 2 0 1 2 3 2 2 4 4 4 4 5 7 10 10 10 9 8 6 6 7 7 6 7 8 7 7 8 8 9 9 10 11 14 15 16 16 16 15 16 14 13
34 33 32 31 29 25 23 22 19 17 16 13 12 12 11 10 10 10 10 10 9 9 8 8 7 6 6 6 7 7 7 7 7 7 7 6 5 4 4 3 3 3 3 2 1 1 2 1 1 1 2 2 2 1 1 3 6 7 9 10 11 11 11 12 12 9 8 8 8 9 8 8 9 11 11 10 11 14 15 14 12 10 10 11 12
33 34 33 32 31 28 26 24 21 19 17 14 13 13 13 12 12 12 10 10 10 10 10 9 8 7 7 7 7 7 7 7 8 8 7 6 6 5 5 6 5 4 3 3 2 2 2 1 2 1 2 2 2 2 3 3 2 2 4 6 7 8 10 12 14 12 9 9 9 9 9 10 10 11 12 12 12 12 12 11 12 10 9 10 12
30 35 35 33 32 30 28 26 22 20 19 16 14 14 14 13 13 13 12 11 11 11 10 9 8 8 8 8 7 6 6 7 7 7 7 6 7 7 7 8 7 6 4 3 2 1 2 2 2 1 2 2 1 2 3 4 5 3 2 0 1 2 4 6 7 7 8 8 8 8 9 10 11 11 11 12 13 13 13 12 11 12 13 12 12
26 31 34 34 33 32 30 27 23 21 19 17 16 16 16 15 14 14 14 12 12 12 11 10 9 8 8 8 8 6 6 6 6 6 7 7 7 8 8 8 8 8 6 5 5 5 5 6 5 4 4 3 2 1 0 2 3 2 2 3 3 2 2 4 3 3 5 6 7 7 7 7 10 13 13 14 13 14 15 15 12 12 14 16 14
23 26 30 32 34 35 32 28 25 23 21 19 18 18 18 17 16 16 16 14 14 14 12 11 10 9 9 8 7 7 6 6 5 5 6 6 6 7 7 7 7 8 8 8 8 8 8 9 8 8 8 7 6 5 3 3 3 2 3 3 2 1 1 3 3 4 5 6 7 8 8 8 10 12 14 14 14 16 18 17 15 14 14 16 17
Wind_Direction
153 167 157 157 153 150 150 145 146 143 137 131 125 123 123 125 131 140 151 162 168 169 169 177 178 163 151 143 137 137 140 139 137 131 131 131 130 128 124 122 119 119 119 114 106 97 91 85 75 91 103 100 91 96 108 121 139 149 148 143 141 139 139 140 140 136 130 125 117 110 103 95 89 84 79 71 69 72 72 69 66 63 63 62 61
158 164 154 154 151 151 149 147 149 142 138 131 127 125 123 124 128 137 151 163 169 172 174 181 183 173 162 154 146 141 146 147 144 136 132 134 135 136 134 132 129 129 129 126 119 109 97 89 72 70 88 108 92 98 118 127 141 150 152 145 141 141 141 140 139 133 128 122 114 108 102 97 92 86 81 73 68 72 78 77 73 67 65 63 60
152 155 151 151 150 151 149 148 146 140 138 131 129 126 124 122 124 135 149 165 171 175 179 183 184 181 174 166 160 150 150 149 148 138 135 140 141 141 141 141 139 137 136 135 131 123 119 115 119 17 330 177 108 114 135 138 141 147 151 143 142 144 142 140 137 131 122 115 112 109 101 95 92 88 82 74 70 72 78 78 73 69 67 65 61
144 148 148 149 149 150 149 147 144 140 138 133 133 128 123 119 121 129 145 163 171 177 181 185 185 186 184 178 171 160 153 151 152 143 144 149 147 146 144 146 143 141 140 142 139 133 143 161 166 283 294 251 209 150 145 143 138 144 148 142 144 144 144 141 132 126 116 110 101 91 74 74 87 86 83 78 77 78 79 75 71 71 69 65 61
141 146 146 147 148 150 149 146 145 141 141 139 135 130 123 117 119 125 138 157 169 176 182 187 187 189 190 190 179 162 155 155 154 147 148 151 150 151 151 153 149 149 152 155 156 159 175 198 194 224 279 270 243 178 154 147 137 142 149 145 144 146 147 139 128 120 112 103 89 79 9 356 72 82 83 84 83 82 80 72 71 73 69 66 63
140 145 146 148 149 151 149 148 147 144 146 143 138 132 124 118 120 123 131 147 162 172 179 185 187 191 194 194 184 165 158 157 152 145 147 150 154 159 164 167 165 163 166 174 180 186 196 221 223 165 152 221 235 195 159 150 151 145 153 152 148 150 143 133 126 119 108 88 74 82 18 337 18 86 91 86 84 78 71 66 68 73 71 67 65
143 145 146 151 151 153 153 153 149 149 150 145 141 134 126 120 123 126 129 139 152 163 172 180 185 190 193 190 181 170 163 158 150 145 147 152 159 164 166 167 169 167 166 178 185 190 192 206 202 156 140 145 186 204 182 166 163 152 159 161 153 150 140 136 128 117 108 86 67 82 100 17 326 63 107 87 82 73 65 64 65 70 71 69 68
146 144 147 153 155 156 155 156 151 151 151 147 143 136 129 122 127 130 132 138 144 155 165 173 180 184 184 181 174 170 167 161 156 150 150 154 158 158 154 150 155 156 156 169 174 173 167 178 172 155 159 165 168 195 206 181 165 159 165 163 152 150 145 143 133 118 105 91 89 118 112 76 312 299 118 98 91 82 70 65 67 71 72 72 70
146 143 150 156 158 159 157 157 152 153 152 148 146 139 131 124 130 135 138 141 144 151 160 167 173 176 175 173 170 170 169 166 161 155 154 155 156 150 142 137 139 144 147 156 164 163 155 165 167 164 176 189 182 190 207 187 178 174 171 166 153 154 149 146 140 118 94 86 108 124 121 105 321 283 127 122 108 94 82 72 69 71 73 74 71
147 148 153 160 161 161 159 157 154 155 152 151 148 143 134 128 135 140 145 145 146 150 155 162 164 168 168 168 167 169 170 167 162 158 159 158 156 146 136 133 134 140 139 146 160 170 171 177 179 183 194 204 198 192 196 187 194 190 178 171 161 159 150 144 133 99 78 84 127 151 157 141 200 216 153 156 126 103 101 94 77 70 71 73 72
148 151 153 162 165 164 160 157 156 156 153 154 152 148 139 134 140 145 151 149 149 148 151 155 156 159 159 162 163 166 166 166 166 163 166 165 159 148 139 135 136 144 137 131 137 173 179 191 199 203 208 216 214 196 188 191 198 197 186 175 171 163 145 139 121 86 75 117 170 150 133 150 224 237 196 164 135 119 110 95 74 67 66 69 71
147 151 156 162 166 167 161 159 158 157 158 158 155 152 146 142 146 151 155 154 151 148 149 151 153 157 158 161 162 167 167 168 171 169 174 176 170 157 148 143 141 144 139 114 83 149 170 198 223 221 216 219 228 207 182 191 201 202 192 179 179 162 143 139 117 92 106 149 151 110 118 202 238 245 200 170 143 106 87 76 67 65 64 68 71
143 148 158 159 163 168 164 163 161 161 162 161 160 158 154 151 152 156 159 158 154 150 149 151 157 161 162 166 170 177 177 176 177 177 184 187 184 174 161 150 139 132 120 87 55 53 126 150 158 217 219 218 230 222 195 193 203 207 196 183 181 160 146 135 109 103 155 153 121 106 170 219 237 251 209 154 93 66 67 68 64 65 66 70 72
141 143 151 155 162 165 166 167 165 166 165 166 166 163 162 158 158 160 163 163 158 155 153 153 159 164 165 166 175 184 186 189 189 188 195 197 189 183 172 149 137 131 115 91 74 86 105 118 115 123 209 208 213 232 219 199 197 201 195 187 178 160 148 122 87 99 152 153 137 122 212 231 245 253 190 56 63 68 69 69 63 64 68 72 73
137 139 144 151 162 165 168 170 169 171 171 171 169 169 168 165 165 165 168 169 165 162 159 157 160 165 165 167 177 183 189 198 198 194 199 203 194 189 181 152 143 145 140 129 115 128 120 124 129 73 54 151 184 215 211 196 188 188 189 182 167 159 153 125 100 151 152 153 141 127 239 252 263 268 108 62 73 78 72 69 66 67 69 72 72
136 139 141 151 162 166 171 171 172 174 175 176 174 175 172 171 172 170 172 175 174 170 167 166 166 167 166 169 175 180 182 186 192 191 196 204 197 190 185 158 158 166 159 148 129 154 142 127 121 47 52 74 136 154 169 184 181 181 182 169 158 154 150 126 116 166 158 150 138 129 250 270 267 243 128 85 84 87 79 71 70 72 74 74 73
135 138 141 152 158 164 171 173 174 174 178 178 179 182 180 180 178 178 179 178 180 179 177 174 171 172 172 171 173 178 175 175 180 179 190 203 202 193 190 174 171 182 177 159 167 185 183 166 173 49 54 68 73 142 163 176 181 184 180 162 157 150 140 121 110 140 188 154 119 135 241 275 271 213 105 87 100 103 94 77 76 79 81 80 79
132 136 139 146 154 162 168 174 174 174 179 179 183 189 190 191 187 187 187 185 187 185 183 178 174 178 180 179 180 188 190 187 183 176 190 204 206 201 198 194 184 194 199 201 214 202 209 226 198 147 40 71 84 141 170 182 196 190 182 169 160 148 136 117 106 142 204 137 107 188 223 255 293 193 141 126 120 117 112 96 89 90 93 89 85
134 137 141 143 151 162 165 168 174 178 183 183 188 192 195 198 196 196 196 194 193 192 187 180 180 185 189 192 192 200 204 202 197 189 193 203 207 208 205 207 209 210 217 233 239 217 215 230 234 254 303 67 111 147 171 178 196 199 183 180 160 148 136 110 100 148 224 115 169 225 230 254 265 196 175 163 146 138 130 117 107 103 106 100 92
137 139 147 150 149 157 163 165 173 182 183 185 191 192 196 200 203 204 202 201 201 201 195 192 193 191 196 202 202 205 206 205 210 206 200 203 198 202 213 221 227 216 223 248 258 244 226 236 252 264 270 260 211 155 162 168 185 202 194 186 166 152 135 100 102 158 156 149 209 241 245 251 241 196 184 176 169 162 151 139 126 120 118 112 103
141 143 148 155 156 154 160 164 171 181 181 184 191 196 200 202 208 210 207 208 211 208 204 208 208 203 207 209 205 207 213 214 219 218 209 203 191 194 216 228 232 223 229 246 259 260 239 239 246 256 264 267 263 233 173 161 172 190 204 191 170 151 137 120 161 161 152 185 221 249 251 241 228 205 190 181 180 176 171 161 147 141 134 126 116
144 146 146 153 159 154 157 164 170 177 178 181 190 198 200 200 207 213 213 214 216 218 216 219 220 216 215 214 213 216 224 226 222 219 211 204 198 203 214 223 233 234 238 241 252 260 243 240 247 254 261 267 276 272 212 169 171 180 200 191 167 150 170 196 177 159 157 195 231 257 260 238 223 210 199 189 186 184 181 174 165 157 148 140 128
145 146 147 151 153 150 158 166 168 170 174 178 183 190 192 195 204 210 214 217 217 222 223 224 225 221 216 216 220 217 219 222 212 209 213 211 209 219 222 218 226 234 240 237 243 257 252 246 252 254 250 256 270 266 246 238 178 182 193 189 173 188 200 184 166 161 184 229 248 261 267 244 223 213 204 197 189 190 188 180 176 168 158 149 137
147 146 148 152 150 151 158 166 167 166 173 176 179 182 183 187 196 204 210 214 212 213 216 220 222 221 219 218 221 218 211 210 206 205 216 224 221 224 230 216 215 226 236 239 239 246 247 243 244 242 235 238 223 162 209 233 220 202 189 185 193 209 207 175 171 166 187 247 263 265 271 254 226 214 205 202 195 193 189 184 185 178 172 163 151
148 147 149 153 152 154 157 166 176 172 172 181 187 185 186 190 192 198 201 208 214 210 210 213 215 219 222 218 219 221 211 206 211 205 197 216 235 236 228 211 205 218 224 235 244 234 220 218 218 221 226 217 192 183 197 205 210 209 195 201 207 207 203 182 186 173 188 245 266 268 268 255 228 209 198 206 202 198 189 190 194 188 189 181 170
146 148 151 156 157 156 157 167 184 181 177 188 195 192 205 209 201 205 201 200 209 213 212 211 211 213 214 209 206 211 209 206 208 197 195 212 235 257 241 220 207 210 202 216 232 223 199 213 203 188 204 199 194 195 189 193 206 204 203 210 211 203 196 199 196 176 190 238 254 258 261 248 234 209 196 198 197 202 194 196 202 198 201 196 190
145 149 153 158 159 161 164 166 179 191 189 186 190 188 197 194 190 209 213 199 197 206 209 202 201 202 202 199 200 209 207 202 197 193 207 217 217 232 252 242 200 201 222 221 209 200 204 227 232 188 200 201 204 205 188 192 203 197 205 212 211 206 200 202 201 186 191 233 251 249 255 248 236 219 200 183 180 195 193 197 203 204 208 207 204
147 150 153 158 161 166 168 168 179 199 190 172 191 188 182 184 183 192 203 205 201 203 201 194 197 201 199 196 206 215 204 198 199 195 204 206 191 214 254 240 173 190 226 228 187 198 209 221 235 217 212 208 212 214 196 199 201 192 199 211 216 213 209 206 203 202 192 219 251 240 243 248 238 232 213 188 177 178 182 186 190 197 202 207 207
149 151 153 157 162 164 164 168 179 201 195 180 202 204 190 199 199 186 190 206 208 202 199 198 200 197 194 196 206 208 196 198 200 196 204 197 188 207 228 209 203 210 220 217 184 201 213 222 243 241 225 207 211 219 204 204 208 199 198 207 217 217 220 218 212 216 200 204 238 235 241 253 241 242 233 209 187 173 172 174 175 181 184 193 198
153 151 151 153 156 159 159 164 163 172 195 193 196 219 213 213 217 204 196 208 210 202 205 210 205 196 191 195 204 197 190 198 189 193 210 198 193 233 214 205 240 239 236 230 184 196 222 223 234 247 247 215 207 225 216 211 215 208 208 212 219 221 224 227 218 219 213 207 227 235 240 248 252 258 257 244 213 187 177 172 172 172 174 184 188
153 148 148 150 151 153 151 150 162 163 162 198 214 235 241 224 228 224 203 204 219 212 209 218 216 209 198 201 210 200 195 205 197 201 219 220 239 255 231 223 262 248 242 234 194 206 210 202 211 219 245 227 202 216 218 218 220 215 215 216 221 224 225 228 222 217 217 212 225 238 237 238 254 267 269 272 258 219 195 182 177 173 173 182 186
150 146 146 149 144 141 140 137 173 174 146 155 240 244 247 224 233 241 224 211 226 223 210 222 220 217 213 213 216 206 212 217 210 215 229 225 237 258 254 267 279 258 245 230 216 220 181 176 220 204 210 212 199 203 210 217 221 219 222 223 221 224 226 229 225 219 218 213 220 237 246 246 248 259 267 270 277 267 235 206 192 180 174 183 190
147 146 144 145 139 135 140 132 160 168 143 149 216 218 252 222 212 234 242 233 231 228 215 227 226 216 217 223 219 206 223 229 225 232 235 228 240 257 271 282 281 268 249 231 224 225 188 198 219 198 199 204 197 199 205 212 216 221 227 230 227 225 226 231 231 225 222 218 219 227 244 257 251 248 257 262 271 277 273 261 236 206 184 187 198
146 147 144 143 141 143 147 136 138 149 147 181 184 181 211 178 170 225 246 241 221 221 227 234 230 214 227 239 231 212 221 230 232 238 231 228 244 254 268 279 282 271 244 226 221 221 203 203 204 190 194 198 199 192 192 200 205 215 217 218 225 222 219 227 236 233 229 223 220 221 229 248 256 252 252 255 259 266 274 277 272 258 228 211 211
148 149 147 144 144 145 144 134 137 149 158 178 164 175 179 139 157 196 236 234 186 196 236 241 227 213 238 243 227 216 211 211 223 232 227 226 245 254 260 268 278 270 235 219 218 216 207 203 199 201 194 190 200 191 183 191 197 208 209 207 218 220 218 225 232 232 233 230 225 226 223 227 238 248 254 250 251 261 269 270 272 274 267 255 240
152 151 150 148 146 142 140 135 135 146 151 163 164 169 162 143 178 181 217 227 176 175 211 218 206 218 228 213 213 221 213 212 227 237 240 230 240 256 258 259 264 258 227 215 217 214 209 204 198 214 208 187 196 199 192 192 200 217 224 224 237 243 235 231 232 231 232 231 230 232 231 227 226 232 240 246 256 261 262 264 267 269 272 272 266
156 154 154 152 148 144 144 141 133 139 143 150 155 149 148 127 114 128 108 139 171 195 183 125 161 220 234 211 218 237 216 228 240 246 256 238 234 253 255 251 251 242 224 216 219 216 214 211 201 211 214 197 202 208 210 209 209 227 249 255 260 266 264 250 240 238 235 232 230 230 232 231 227 227 231 236 250 258 260 262 266 267 267 269 271
160 160 161 155 153 152 152 151 144 145 144 143 145 139 146 137 119 145 143 120 117 134 142 153 164 138 64 195 221 261 198 225 236 240 258 246 236 244 247 249 242 229 223 218 221 220 217 218 212 214 215 212 212 209 214 222 223 239 256 263 267 266 268 265 248 237 234 233 232 229 231 232 225 224 230 229 232 248 260 260 259 264 267 265 261
163 165 166 159 159 161 159 161 157 154 150 148 147 141 142 138 130 127 121 110 102 105 112 153 172 115 98 126 157 206 170 193 232 228 235 241 243 238 240 248 242 230 225 219 222 226 227 225 222 224 224 225 229 222 222 230 241 254 260 264 268 265 264 266 255 238 228 228 232 229 226 230 226 223 227 226 221 233 251 256 255 258 262 260 253
168 169 169 164 165 168 168 170 171 166 158 152 141 134 129 126 125 113 111 112 110 111 98 92 98 99 101 110 154 208 206 199 234 249 227 217 235 242 244 247 243 235 228 224 224 226 232 233 228 229 231 233 237 238 238 243 254 259 260 262 267 268 264 260 254 245 233 222 226 231 227 225 226 227 229 229 227 225 235 247 252 256 260 261 258
175 174 171 169 170 172 176 179 182 177 161 153 150 147 145 143 137 127 126 119 114 116 103 108 137 154 153 151 194 236 256 248 234 249 243 229 231 241 253 249 243 245 236 229 233 230 232 235 231 229 234 241 244 246 247 248 255 256 254 264 272 269 262 254 247 249 249 232 225 232 230 227 230 233 234 233 233 229 228 234 238 244 253 260 265
181 180 176 175 175 177 182 186 188 183 169 161 164 160 150 148 141 133 132 118 106 108 108 127 153 167 183 215 254 252 266 264 237 223 215 224 237 235 243 236 232 257 252 230 237 237 231 233 234 233 238 244 246 247 248 245 246 245 253 278 286 280 267 258 247 246 255 252 241 238 231 232 239 241 242 239 237 235 231 231 230 230 231 240 262
189 188 186 184 183 183 187 192 191 187 183 170 164 165 156 153 143 134 132 121 125 133 128 124 107 95 106 99 272 216 178 292 257 229 192 190 215 228 238 227 215 245 258 241 245 248 242 235 233 237 239 243 243 243 249 246 234 231 244 271 284 296 297 276 249 245 256 260 258 255 246 244 243 242 245 243 243 243 236 233 233 233 229 224 236
197 195 196 196 194 192 193 196 191 190 195 178 166 176 174 168 155 147 146 143 150 150 129 108 94 83 78 79 80 99 108 104 99 87 108 169 158 181 237 227 217 225 230 237 251 260 264 252 233 244 252 251 246 247 255 243 227 223 223 231 257 288 306 299 268 251 257 264 265 264 259 254 250 244 243 240 240 244 241 236 234 234 236 230 223
202 201 202 201 199 198 197 198 193 192 200 188 178 183 182 179 168 156 152 146 137 126 118 107 93 83 79 78 76 83 91 97 105 103 96 106 116 121 205 224 211 185 170 203 277 301 300 285 255 255 268 271 258 249 252 235 224 225 224 220 225 246 282 296 298 269 246 258 265 260 261 265 266 252 242 238 232 234 237 234 232 234 237 237 231
206 206 206 204 201 199 198 200 195 194 199 195 187 181 176 178 166 150 143 140 134 130 132 123 109 104 97 89 84 87 90 92 99 100 95 91 94 104 101 89 93 93 95 94 40 355 1 350 324 288 279 286 266 237 231 228 229 235 235 235 232 233 259 283 293 284 262 256 248 247 259 268 281 279 262 253 243 241 239 233 231 233 235 238 240
210 210 209 208 205 199 200 203 197 195 198 194 189 178 173 174 158 149 148 144 142 143 142 132 127 126 114 101 91 87 85 87 92 92 93 94 94 102 108 98 81 82 85 91 124 79 37 320 271 29 1 329 302 252 206 207 225 235 235 242 248 248 254 265 270 274 274 268 256 254 260 267 286 292 282 274 265 257 252 250 252 245 237 243 245
212 215 213 211 208 202 203 205 198 197 198 193 188 177 173 170 159 157 156 151 154 153 147 140 137 132 120 107 95 90 87 85 88 92 95 100 105 107 105 99 88 77 75 72 94 94 44 322 241 104 42 22 61 74 70 82 112 173 209 229 245 244 246 254 258 259 262 269 271 267 266 268 275 281 282 283 280 272 268 272 278 276 262 244 238
210 217 218 214 210 204 204 205 201 199 197 193 189 178 174 172 164 163 161 159 163 156 147 147 145 139 130 122 116 112 107 100 98 100 101 98 102 106 110 112 103 90 87 90 95 113 71 33 27 59 23 344 17 84 78 61 63 84 111 110 279 254 250 251 250 254 263 266 270 274 276 278 279 278 275 277 282 284 286 290 292 297 294 273 255
206 214 217 214 209 204 203 204 202 201 197 195 190 180 175 175 171 169 166 165 165 158 154 157 153 147 142 135 130 125 116 111 106 102 100 95 94 98 102 110 113 109 106 100 82 70 74 69 60 59 54 39 29 31 81 63 62 68 63 50 25 348 308 290 275 275 285 281 277 283 290 295 297 294 285 281 288 291 289 291 291 294 298 293 285
199 203 208 210 208 206 204 200 201 204 200 196 192 182 177 178 177 175 171 169 168 164 165 165 158 155 151 143 140 137 135 130 117 107 103 96 92 95 97 97 100 102 98 93 86 78 77 74 70 68 66 67 68 61 55 66 63 48 63 69 28 339 311 312 303 290 296 299 294 293 294 295 298 299 295 291 291 288 285 286 282 281 286 286 285
Height
1495 1495 1496 1498 1500 1501 1503 1505 1506 1508 1509 1511 1512 1513 1514 1515 1516 1516 1517 1518 1519 1521 1522 1522 1523 1524 1525 1526 1526 1526 1527 1527 1527 1528 1528 1529 1529 1530 1531 1532 1533 1533 1534 1534 1535 1535 1535 1535 1536 1536 1536 1537 1537 1537 1537 1538 1538 1538 1539 1539 1539 1540 1540 1541 1541 1542 1543 1543 1544 1544 1544 1543 1543 1543 1543 1543 1543 1543 1543 1543 1543 1543 1542 1541 1541
1494 1495 1497 1498 1501 1502 1504 1505 1507 1508 1510 1511 1513 1514 1515 1516 1516 1517 1518 1519 1520 1521 1522 1523 1524 1525 1526 1526 1527 1527 1528 1528 1529 1529 1529 1530 1531 1531 1532 1533 1533 1534 1535 1535 1535 1536 1536 1536 1537 1537 1537 1537 1538 1538 1538 1539 1539 1539 1540 1540 1540 1541 1541 1542 1543 1543 1544 1545 1545 1545 1545 1544 1544 1544 1544 1543 1543 1544 1544 1544 1544 1544 1543 1542 1542
1493 1496 1497 1499 1501 1502 1504 1505 1507 1509 1511 1512 1513 1514 1515 1516 1517 1518 1518 1520 1521 1522 1523 1523 1524 1525 1526 1527 1528 1528 1529 1529 1530 1530 1531 1531 1532 1532 1533 1533 1534 1535 1536 1536 1536 1537 1537 1537 1537 1538 1538 1538 1538 1539 1539 1539 1540 1540 1540 1541 1541 1542 1542 1543 1543 1544 1545 1546 1546 1546 1546 1546 1545 1545 1545 1544 1544 1544 1545 1545 1545 1545 1544 1544 1543
1494 1496 1498 1500 1501 1503 1505 1506 1508 1509 1511 1512 1514 1515 1516 1517 1517 1519 1519 1520 1521 1523 1523 1524 1525 1526 1527 1527 1528 1529 1529 1530 1531 1531 1532 1532 1533 1533 1534 1534 1535 1536 1536 1537 1537 1538 1538 1538 1538 1538 1539 1539 1539 1539 1540 1540 1540 1541 1541 1542 1542 1543 1543 1544 1545 1545 1546 1547 1547 1547 1547 1547 1547 1546 1545 1545 1545 1545 1546 1546 1546 1546 1545 1545 1545
1495 1496 1498 1500 1502 1504 1505 1507 1509 1510 1512 1513 1514 1515 1516 1517 1518 1519 1520 1521 1522 1523 1524 1525 1526 1526 1527 1528 1529 1530 1530 1531 1531 1532 1532 1533 1533 1534 1534 1535 1535 1536 1537 1538 1538 1539 1539 1539 1539 1539 1539 1539 1540 1540 1541 1541 1541 1542 1542 1543 1543 1544 1544 1545 1546 1546 1547 1548 1548 1549 1550 1548 1548 1547 1546 1546 1546 1546 1546 1547 1547 1547 1547 1546 1546
1495 1497 1498 1500 1502 1504 1506 1507 1509 1511 1512 1513 1515 1516 1517 1518 1519 1520 1521 1522 1522 1524 1525 1525 1526 1527 1528 1529 1530 1530 1531 1531 1532 1533 1533 1533 1534 1535 1535 1535 1536 1536 1537 1538 1538 1539 1539 1539 1539 1540 1540 1540 1540 1541 1541 1542 1542 1542 1543 1543 1544 1545 1545 1546 1547 1547 1548 1549 1550 1553 1553 1550 1549 1548 1547 1547 1546 1547 1547 1547 1547 1547 1547 1547 1547
1496 1497 1499 1500 1502 1504 1506 1508 1509 1511 1512 1514 1515 1516 1518 1518 1519 1520 1521 1522 1523 1524 1525 1526 1527 1528 1529 1530 1530 1531 1532 1532 1533 1533 1534 1535 1535 1536 1536 1536 1536 1537 1537 1538 1538 1539 1539 1540 1540 1540 1541 1541 1541 1541 1542 1542 1543 1543 1543 1544 1545 1545 1546 1547 1548 1549 1549 1550 1552 1556 1556 1553 1550 1549 1548 1547 1547 1547 1547 1547 1548 1548 1548 1548 1548
1496 1497 1499 1501 1503 1504 1506 1508 1510 1512 1513 1514 1516 1517 1518 1519 1520 1521 1522 1523 1524 1525 1526 1527 1528 1528 1529 1530 1531 1532 1532 1533 1533 1534 1535 1536 1536 1536 1537 1537 1537 1537 1538 1538 1539 1539 1540 1540 1541 1541 1541 1541 1541 1541 1542 1542 1543 1544 1544 1544 1545 1546 1547 1548 1549 1550 1550 1551 1555 1557 1557 1555 1551 1549 1549 1548 1548 1547 1548 1548 1548 1549 1549 1549 1549
1496 1498 1499 1501 1503 1505 1507 1509 1510 1512 1513 1515 1516 1517 1518 1519 1520 1522 1523 1524 1525 1526 1527 1527 1528 1529 1530 1531 1532 1532 1533 1533 1534 1535 1536 1536 1537 1537 1537 1537 1538 1538 1538 1539 1539 1539 1540 1541 1541 1542 1542 1542 1541 1541 1542 1543 1543 1544 1544 1545 1545 1546 1547 1548 1550 1550 1551 1553 1556 1558 1557 1556 1553 1550 1549 1548 1548 1548 1548 1549 1549 1550 1550 1550 1550
1497 1498 1500 1502 1504 1505 1507 1509 1511 1512 1513 1515 1516 1518 1519 1520 1521 1522 1523 1524 1526 1526 1528 1528 1529 1530 1531 1532 1532 1533 1534 1534 1535 1536 1536 1537 1537 1537 1538 1538 1538 1539 1539 1539 1539 1540 1540 1541 1542 1542 1542 1541 1541 1541 1542 1543 1544 1544 1544 1545 1546 1547 1548 1549 1551 1551 1553 1556 1557 1557 1557 1557 1554 1550 1549 1549 1549 1548 1549 1550 1551 1551 1551 1551 1551
1498 1499 1501 1503 1504 1506 1507 1509 1511 1512 1514 1515 1517 1518 1519 1521 1522 1523 1524 1525 1527 1527 1528 1529 1530 1531 1532 1533 1533 1534 1534 1535 1536 1536 1537 1537 1538 1538 1538 1539 1539 1539 1539 1540 1540 1540 1541 1541 1542 1542 1541 1541 1542 1542 1542 1543 1544 1544 1545 1545 1546 1547 1548 1550 1551 1552 1556 1558 1556 1556 1557 1556 1552 1550 1549 1549 1549 1549 1550 1551 1552 1552 1552 1552 1552
1498 1500 1501 1502 1505 1506 1508 1510 1511 1513 1515 1516 1517 1519 1520 1521 1522 1524 1525 1526 1527 1528 1529 1530 1531 1532 1532 1533 1534 1535 1535 1536 1536 1537 1538 1538 1538 1538 1539 1539 1540 1540 1540 1540 1540 1541 1541 1541 1541 1541 1541 1542 1542 1542 1543 1543 1544 1544 1545 1545 1546 1548 1549 1550 1550 1553 1558 1557 1556 1557 1558 1555 1551 1550 1550 1550 1550 1551 1552 1552 1552 1553 1553 1553 1552
1499 1500 1502 1503 1505 1507 1509 1510 1512 1514 1515 1517 1518 1520 1521 1522 1523 1524 1526 1527 1528 1528 1529 1530 1531 1532 1533 1534 1534 1535 1536 1536 1537 1537 1538 1538 1538 1538 1539 1539 1540 1540 1540 1540 1541 1541 1541 1541 1542 1542 1542 1542 1542 1543 1543 1543 1544 1544 1545 1545 1547 1548 1550 1551 1551 1555 1558 1557 1556 1558 1557 1554 1552 1551 1551 1551 1552 1552 1553 1553 1553 1553 1554 1554 1553
1499 1501 1503 1504 1506 1508 1510 1511 1513 1514 1516 1517 1519 1520 1522 1523 1524 1525 1526 1527 1528 1529 1529 1530 1531 1532 1533 1534 1535 1535 1536 1537 1537 1538 1538 1538 1538 1539 1539 1540 1540 1540 1540 1541 1541 1541 1542 1542 1542 1542 1542 1542 1543 1543 1543 1544 1544 1545 1545 1546 1547 1548 1550 1551 1553 1556 1558 1557 1557 1558 1556 1552 1553 1552 1552 1553 1553 1553 1553 1553 1553 1554 1554 1554 1554
1500 1501 1503 1504 1505 1508 1510 1511 1513 1514 1516 1518 1519 1521 1522 1524 1525 1526 1527 1528 1529 1529 1530 1531 1532 1533 1534 1534 1535 1536 1537 1537 1538 1538 1538 1538 1538 1539 1539 1540 1540 1540 1541 1541 1541 1542 1542 1542 1542 1542 1542 1542 1543 1543 1544 1545 1545 1545 1546 1546 1547 1549 1550 1550 1554 1558 1557 1557 1557 1558 1556 1552 1553 1553 1553 1553 1554 1554 1554 1554 1554 1554 1554 1555 1555
1501 1502 1503 1504 1506 1507 1510 1511 1513 1514 1516 1518 1520 1521 1523 1524 1525 1526 1527 1528 1529 1530 1531 1531 1532 1533 1534 1535 1535 1536 1537 1538 1538 1538 1538 1538 1539 1539 1540 1540 1540 1541 1541 1541 1542 1542 1542 1542 1543 1543 1543 1543 1543 1544 1544 1546 1546 1546 1546 1547 1548 1549 1550 1550 1553 1557 1557 1557 1557 1558 1556 1553 1554 1554 1554 1554 1554 1555 1555 1555 1555 1555 1555 1555 1555
1502 1503 1503 1505 1506 1508 1510 1511 1513 1515 1516 1518 1520 1522 1523 1523 1525 1526 1527 1528 1529 1530 1531 1532 1533 1534 1535 1535 1536 1537 1537 1537 1538 1538 1538 1538 1539 1539 1540 1540 1540 1541 1541 1541 1542 1542 1542 1542 1543 1543 1543 1544 1544 1544 1545 1546 1547 1547 1547 1548 1549 1549 1551 1551 1553 1557 1557 1557 1558 1559 1556 1554 1555 1554 1554 1554 1555 1555 1555 1556 1556 1556 1556 1556 1556
1504 1505 1505 1505 1507 1509 1510 1512 1513 1515 1516 1518 1520 1521 1522 1524 1525 1526 1527 1528 1529 1530 1531 1533 1534 1534 1535 1536 1536 1537 1537 1537 1538 1538 1538 1538 1539 1539 1540 1540 1540 1541 1541 1541 1542 1542 1542 1543 1543 1543 1544 1544 1544 1545 1545 1546 1547 1548 1548 1549 1550 1550 1551 1552 1554 1557 1556 1556 1558 1557 1555 1555 1555 1554 1554 1555 1555 1555 1556 1556 1556 1557 1556 1557 1557
1505 1506 1506 1507 1508 1509 1511 1512 1514 1515 1516 1518 1519 1521 1522 1524 1525 1526 1526 1528 1529 1530 1531 1533 1534 1534 1534 1535 1536 1536 1537 1537 1537 1538 1538 1539 1539 1539 1539 1540 1541 1541 1541 1541 1541 1542 1542 1542 1543 1543 1544 1545 1545 1546 1545 1546 1547 1548 1549 1549 1550 1551 1552 1553 1555 1557 1556 1557 1557 1555 1555 1555 1554 1554 1554 1555 1555 1555 1556 1556 1556 1557 1557 1557 1557
1505 1507 1508 1508 1509 1510 1511 1512 1514 1515 1516 1518 1519 1520 1522 1524 1524 1525 1526 1528 1529 1530 1531 1532 1532 1533 1533 1534 1535 1536 1537 1537 1537 1537 1538 1538 1539 1539 1539 1540 1540 1541 1541 1541 1541 1541 1542 1542 1543 1543 1544 1545 1546 1546 1546 1546 1547 1548 1549 1550 1551 1552 1552 1553 1555 1557 1557 1557 1556 1554 1555 1555 1554 1554 1554 1554 1555 1555 1556 1556 1557 1557 1557 1557 1557
1505 1507 1508 1508 1509 1510 1511 1513 1514 1515 1516 1518 1520 1521 1522 1523 1524 1525 1526 1528 1529 1530 1530 1531 1531 1532 1532 1533 1535 1536 1536 1537 1537 1537 1537 1538 1538 1539 1539 1539 1540 1540 1541 1540 1540 1541 1541 1542 1542 1543 1544 1545 1546 1546 1547 1547 1547 1548 1549 1550 1551 1552 1553 1554 1555 1556 1557 1557 1555 1554 1555 1554 1554 1554 1554 1554 1554 1555 1555 1556 1556 1557 1557 1557 1558
1505 1506 1508 1509 1509 1510 1511 1513 1514 1515 1517 1519 1521 1522 1522 1523 1524 1525 1526 1527 1528 1529 1529 1530 1531 1531 1532 1533 1534 1535 1536 1536 1537 1537 1537 1537 1538 1538 1539 1539 1539 1540 1540 1540 1540 1540 1541 1542 1542 1543 1544 1545 1546 1546 1546 1547 1547 1548 1549 1551 1551 1552 1554 1555 1555 1556 1557 1556 1554 1554 1554 1554 1554 1553 1553 1554 1554 1555 1555 1556 1556 1556 1557 1557 1558
1505 1506 1508 1510 1510 1511 1512 1512 1514 1515 1517 1519 1521 1522 1522 1523 1524 1525 1526 1527 1527 1528 1529 1530 1531 1531 1532 1533 1534 1534 1535 1535 1536 1536 1536 1537 1537 1538 1538 1539 1539 1539 1539 1539 1540 1540 1540 1541 1542 1543 1543 1545 1545 1546 1547 1547 1548 1548 1549 1551 1552 1553 1554 1554 1555 1557 1557 1555 1554 1554 1553 1553 1553 1553 1553 1554 1554 1555 1555 1556 1556 1557 1557 1557 1558
1505 1506 1508 1510 1511 1512 1513 1513 1513 1515 1516 1518 1520 1521 1522 1523 1523 1524 1525 1525 1526 1527 1528 1529 1530 1530 1532 1533 1534 1534 1534 1535 1535 1536 1536 1536 1537 1537 1537 1538 1539 1539 1539 1539 1540 1540 1540 1541 1541 1542 1543 1544 1545 1546 1548 1549 1549 1549 1550 1551 1552 1553 1553 1554 1555 1557 1557 1554 1553 1554 1553 1553 1553 1553 1553 1553 1554 1554 1555 1555 1556 1556 1557 1558 1558
1505 1507 1508 1510 1511 1513 1513 1514 1514 1515 1517 1518 1519 1520 1520 1521 1522 1523 1523 1524 1524 1525 1526 1528 1528 1529 1531 1532 1533 1533 1533 1534 1535 1536 1536 1536 1536 1537 1537 1538 1538 1538 1539 1539 1539 1539 1540 1540 1541 1541 1542 1544 1545 1547 1549 1550 1550 1550 1551 1551 1552 1553 1553 1554 1555 1557 1557 1554 1553 1554 1553 1553 1553 1553 1553 1553 1554 1554 1554 1555 1555 1556 1556 1557 1558
1505 1507 1509 1510 1512 1513 1514 1514 1514 1514 1516 1518 1519 1520 1520 1520 1521 1521 1522 1523 1524 1524 1525 1527 1528 1529 1531 1532 1533 1532 1533 1534 1535 1535 1536 1536 1537 1537 1537 1537 1537 1538 1539 1540 1540 1540 1540 1540 1540 1541 1542 1543 1545 1546 1547 1548 1549 1550 1551 1551 1552 1553 1554 1554 1554 1555 1556 1554 1554 1554 1554 1554 1553 1553 1553 1553 1554 1554 1554 1554 1555 1555 1556 1557 1557
1506 1507 1509 1511 1512 1513 1514 1515 1515 1514 1515 1516 1517 1519 1520 1521 1522 1521 1521 1522 1524 1525 1526 1527 1529 1530 1532 1533 1532 1532 1533 1534 1534 1535 1535 1536 1536 1536 1536 1536 1536 1538 1539 1539 1540 1540 1541 1541 1540 1541 1542 1543 1544 1545 1546 1548 1549 1550 1551 1551 1552 1553 1554 1554 1554 1555 1555 1554 1554 1554 1554 1554 1554 1553 1553 1553 1554 1554 1554 1554 1554 1555 1555 1556 1557
1506 1508 1509 1510 1512 1513 1514 1515 1515 1515 1515 1516 1516 1517 1519 1520 1521 1522 1522 1522 1523 1525 1525 1526 1527 1529 1531 1532 1532 1532 1532 1533 1533 1533 1534 1534 1535 1535 1535 1535 1537 1539 1539 1538 1539 1540 1541 1541 1541 1541 1542 1543 1544 1545 1546 1547 1548 1549 1550 1551 1552 1552 1553 1554 1554 1554 1554 1554 1554 1554 1554 1554 1554 1554 1553 1553 1553 1553 1553 1553 1553 1554 1554 1555 1556
1506 1507 1509 1510 1512 1513 1514 1515 1515 1515 1515 1517 1517 1517 1518 1518 1519 1520 1521 1522 1523 1523 1524 1525 1526 1528 1529 1531 1531 1530 1531 1532 1532 1532 1532 1532 1533 1533 1534 1535 1536 1538 1538 1538 1539 1540 1540 1541 1541 1541 1541 1542 1544 1544 1545 1546 1547 1548 1549 1551 1552 1552 1553 1553 1553 1553 1554 1554 1554 1554 1554 1554 1554 1554 1554 1554 1553 1553 1553 1553 1553 1553 1554 1554 1555
1506 1506 1508 1510 1511 1513 1514 1515 1515 1516 1516 1516 1517 1517 1518 1518 1518 1519 1520 1520 1521 1522 1522 1523 1524 1526 1527 1529 1529 1529 1530 1531 1531 1531 1531 1531 1532 1532 1532 1534 1535 1536 1536 1537 1538 1539 1540 1540 1541 1541 1541 1542 1544 1544 1544 1546 1547 1548 1549 1550 1551 1552 1552 1552 1553 1553 1554 1554 1554 1553 1554 1554 1554 1554 1554 1554 1553 1553 1553 1553 1553 1553 1553 1554 1554
1505 1506 1508 1510 1511 1513 1514 1515 1515 1516 1517 1517 1517 1517 1517 1518 1518 1519 1519 1520 1520 1520 1521 1522 1523 1524 1525 1526 1526 1527 1528 1528 1528 1530 1530 1531 1532 1532 1532 1533 1534 1534 1536 1537 1538 1539 1539 1540 1541 1542 1542 1542 1543 1544 1545 1546 1546 1547 1549 1550 1551 1551 1552 1552 1553 1554 1554 1555 1554 1553 1553 1553 1553 1554 1554 1554 1554 1553 1553 1553 1553 1553 1553 1553 1554
1505 1506 1508 1509 1511 1513 1514 1515 1515 1514 1516 1517 1517 1516 1517 1518 1519 1518 1519 1519 1519 1519 1521 1521 1521 1522 1524 1524 1524 1526 1526 1526 1527 1528 1530 1531 1532 1532 1532 1533 1533 1534 1535 1536 1537 1538 1539 1540 1541 1541 1542 1542 1542 1544 1544 1545 1546 1547 1548 1550 1550 1551 1552 1552 1553 1553 1554 1555 1554 1554 1553 1553 1553 1554 1554 1554 1554 1554 1553 1553 1553 1553 1553 1553 1553
1505 1506 1508 1509 1511 1513 1514 1515 1515 1514 1516 1517 1517 1517 1517 1518 1519 1519 1518 1518 1518 1519 1520 1520 1520 1522 1523 1523 1524 1525 1525 1526 1527 1528 1530 1531 1531 1532 1532 1532 1533 1533 1534 1535 1536 1537 1538 1539 1540 1540 1541 1541 1541 1542 1543 1544 1545 1546 1548 1549 1550 1550 1551 1552 1552 1553 1553 1554 1554 1554 1553 1552 1552 1553 1554 1554 1554 1554 1554 1553 1553 1553 1553 1553 1553
1505 1506 1507 1508 1510 1512 1513 1514 1515 1515 1516 1516 1516 1517 1517 1518 1519 1519 1518 1518 1519 1519 1519 1519 1520 1522 1522 1522 1523 1524 1524 1525 1526 1527 1529 1530 1531 1532 1532 1532 1532 1533 1533 1534 1535 1536 1537 1538 1539 1539 1540 1540 1540 1541 1542 1544 1544 1545 1545 1546 1548 1549 1550 1551 1552 1552 1552 1552 1553 1554 1554 1553 1552 1552 1553 1553 1554 1554 1553 1553 1553 1553 1553 1553 1553
1505 1506 1506 1508 1509 1511 1512 1513 1514 1515 1515 1516 1516 1517 1517 1518 1519 1519 1519 1518 1519 1520 1520 1519 1520 1522 1522 1522 1523 1523 1524 1525 1526 1527 1529 1530 1531 1531 1532 1532 1532 1532 1532 1533 1534 1535 1536 1537 1538 1539 1539 1540 1540 1541 1541 1541 1542 1543 1543 1544 1545 1547 1548 1549 1550 1551 1551 1551 1552 1553 1553 1553 1553 1552 1552 1552 1553 1553 1553 1553 1553 1553 1553 1553 1553
1504 1505 1506 1507 1509 1510 1512 1513 1514 1515 1515 1515 1516 1516 1517 1517 1518 1519 1519 1519 1519 1520 1520 1520 1521 1522 1521 1521 1522 1523 1523 1525 1525 1527 1528 1529 1530 1531 1531 1531 1531 1531 1532 1532 1533 1534 1535 1536 1537 1538 1538 1539 1540 1540 1540 1540 1541 1542 1543 1543 1545 1546 1546 1547 1548 1549 1550 1550 1551 1551 1551 1552 1553 1553 1552 1552 1552 1552 1552 1552 1552 1553 1553 1553 1553
1504 1505 1506 1507 1509 1510 1512 1513 1514 1514 1515 1515 1516 1516 1517 1518 1518 1519 1520 1520 1520 1520 1521 1521 1522 1521 1521 1521 1521 1522 1523 1524 1525 1526 1527 1528 1529 1530 1530 1530 1530 1530 1531 1531 1532 1533 1534 1534 1535 1536 1537 1538 1540 1540 1540 1540 1540 1541 1542 1542 1544 1545 1546 1546 1547 1547 1548 1549 1549 1550 1550 1551 1551 1552 1552 1552 1552 1551 1551 1552 1552 1552 1552 1552 1553
1504 1504 1505 1507 1508 1510 1511 1513 1514 1514 1515 1515 1516 1516 1517 1518 1519 1519 1520 1521 1521 1522 1522 1522 1522 1521 1521 1522 1522 1522 1523 1523 1524 1525 1526 1527 1528 1528 1529 1529 1529 1530 1530 1531 1531 1532 1532 1533 1533 1534 1536 1538 1540 1540 1539 1539 1540 1541 1541 1542 1543 1544 1545 1545 1546 1546 1547 1548 1548 1549 1550 1550 1550 1551 1551 1551 1552 1551 1550 1551 1551 1551 1551 1551 1552
1503 1504 1505 1507 1508 1510 1511 1512 1513 1514 1515 1515 1516 1516 1517 1518 1519 1519 1520 1521 1522 1522 1523 1523 1522 1522 1522 1522 1523 1523 1523 1523 1523 1524 1525 1527 1527 1527 1527 1527 1528 1529 1529 1530 1531 1532 1531 1531 1532 1533 1534 1536 1538 1538 1537 1537 1539 1540 1541 1542 1542 1542 1543 1544 1544 1544 1544 1546 1547 1548 1548 1549 1549 1549 1549 1550 1551 1551 1550 1550 1550 1550 1550 1550 1550
1501 1503 1504 1506 1508 1509 1511 1512 1513 1514 1515 1515 1516 1517 1518 1519 1519 1520 1521 1522 1522 1522 1523 1523 1523 1523 1523 1523 1523 1523 1524 1524 1524 1524 1525 1527 1527 1527 1527 1527 1527 1528 1528 1529 1530 1530 1530 1530 1531 1532 1532 1533 1535 1535 1535 1536 1537 1538 1539 1540 1541 1541 1541 1542 1543 1543 1543 1543 1545 1546 1547 1547 1547 1547 1548 1549 1550 1550 1550 1549 1549 1548 1548 1549 1549
1500 1502 1504 1506 1507 1509 1510 1512 1513 1514 1515 1516 1517 1518 1519 1520 1520 1521 1522 1522 1522 1522 1523 1523 1523 1523 1522 1523 1523 1523 1523 1524 1524 1525 1525 1526 1526 1526 1526 1526 1526 1527 1527 1527 1528 1529 1530 1530 1530 1531 1531 1532 1533 1534 1534 1535 1536 1537 1538 1539 1540 1540 1540 1541 1541 1542 1542 1542 1543 1544 1544 1545 1545 1545 1546 1547 1548 1548 1549 1549 1548 1548 1548 1548 1548
1499 1501 1503 1505 1507 1508 1510 1511 1513 1514 1515 1516 1518 1518 1519 1520 1521 1521 1522 1522 1523 1523 1523 1522 1522 1522 1522 1522 1522 1523 1523 1523 1524 1524 1525 1526 1526 1526 1526 1526 1526 1526 1527 1527 1528 1529 1529 1529 1530 1530 1530 1530 1532 1534 1534 1534 1535 1537 1538 1539 1540 1539 1539 1539 1539 1540 1541 1542 1543 1543 1543 1544 1544 1545 1545 1546 1546 1546 1547 1548 1547 1548 1548 1548 1547
1497 1500 1502 1503 1505 1508 1509 1511 1512 1514 1515 1516 1517 1518 1518 1519 1520 1521 1522 1523 1523 1523 1523 1522 1522 1522 1522 1522 1522 1523 1523 1523 1523 1524 1525 1526 1526 1526 1526 1526 1526 1526 1526 1527 1527 1527 1528 1529 1530 1529 1529 1530 1531 1533 1533 1534 1535 1536 1537 1539 1539 1539 1538 1538 1538 1539 1540 1542 1543 1543 1542 1543 1544 1544 1545 1544 1545 1545 1545 1546 1546 1546 1546 1547 1547
1496 1498 1500 1502 1504 1506 1508 1510 1511 1513 1515 1516 1517 1517 1518 1518 1519 1520 1521 1522 1522 1522 1523 1523 1523 1523 1522 1523 1523 1523 1523 1523 1524 1525 1525 1525 1525 1526 1526 1525 1526 1526 1526 1527 1526 1526 1527 1528 1528 1528 1528 1529 1530 1532 1533 1534 1535 1535 1536 1538 1538 1539 1539 1538 1538 1539 1541 1542 1542 1542 1542 1542 1542 1542 1542 1542 1543 1543 1544 1544 1544 1543 1543 1544 1545
1494 1496 1498 1501 1503 1505 1507 1509 1510 1512 1514 1515 1516 1516 1517 1518 1518 1519 1520 1521 1522 1523 1524 1524 1524 1524 1524 1523 1523 1523 1523 1524 1524 1525 1525 1525 1525 1526 1526 1526 1525 1526 1526 1527 1527 1526 1527 1527 1527 1527 1527 1528 1529 1531 1533 1534 1534 1535 1535 1536 1537 1538 1539 1539 1540 1540 1541 1541 1541 1541 1541 1540 1540 1539 1539 1539 1540 1540 1540 1541 1541 1541 1541 1541 1542
1492 1494 1497 1499 1502 1504 1506 1507 1509 1511 1513 1514 1515 1516 1517 1517 1518 1519 1520 1521 1523 1524 1524 1525 1525 1525 1525 1525 1524 1524 1524 1524 1524 1525 1525 1525 1526 1526 1526 1527 1526 1526 1526 1527 1527 1527 1528 1528 1527 1527 1527 1527 1529 1530 1532 1533 1533 1534 1534 1535 1536 1537 1538 1539 1540 1540 1540 1540 1540 1540 1540 1540 1539 1538 1538 1538 1538 1538 1538 1537 1538 1539 1539 1539 1540
1490 1493 1495 1498 1500 1503 1504 1506 1508 1510 1512 1513 1515 1515 1516 1517 1518 1520 1521 1522 1523 1524 1524 1525 1525 1525 1525 1525 1525 1525 1525 1525 1525 1525 1526 1526 1526 1526 1526 1527 1527 1527 1527 1528 1528 1528 1528 1528 1527 1527 1527 1528 1529 1530 1531 1531 1532 1532 1533 1534 1535 1536 1537 1538 1540 1540 1540 1540 1539 1539 1538 1538 1538 1538 1537 1538 1538 1538 1537 1537 1538 1538 1536 1537 1538
1488 1490 1493 1496 1498 1501 1503 1505 1507 1508 1510 1512 1514 1515 1516 1517 1518 1520 1521 1523 1523 1524 1524 1525 1525 1525 1526 1526 1526 1526 1526 1526 1526 1526 1526 1526 1526 1526 1526 1527 1528 1528 1528 1528 1528 1528 1528 1527 1526 1527 1528 1529 1530 1530 1531 1531 1532 1532 1533 1533 1534 1535 1535 1536 1538 1539 1539 1539 1538 1537 1537 1537 1536 1536 1536 1536 1536 1536 1537 1537 1538 1537 1536 1536 1537
1486 1488 1490 1493 1496 1499 1501 1503 1505 1507 1509 1511 1512 1514 1515 1516 1518 1520 1521 1522 1523 1523 1524 1525 1525 1525 1526 1526 1527 1527 1527 1527 1527 1527 1527 1527 1527 1527 1527 1527 1528 1528 1529 1528 1528 1527 1527 1527 1527 1528 1529 1529 1530 1531 1531 1532 1532 1533 1533 1533 1534 1534 1535 1536 1536 1537 1538 1537 1537 1536 1536 1535 1535 1535 1535 1535 1535 1535 1535 1536 1536 1537 1536 1536 1536
1484 1486 1488 1490 1493 1496 1498 1502 1504 1506 1507 1509 1511 1513 1514 1515 1517 1519 1521 1522 1523 1523 1524 1525 1525 1526 1526 1527 1527 1527 1527 1527 1527 1527 1527 1528 1527 1528 1528 1528 1528 1528 1529 1529 1528 1528 1528 1528 1528 1529 1529 1529 1530 1531 1531 1532 1532 1533 1533 1534 1534 1535 1535 1536 1536 1537 1537 1536 1536 1536 1535 1535 1534 1533 1533 1533 1534 1534 1534 1535 1535 1536 1536 1536 1536
1482 1484 1486 1487 1490 1492 1495 1499 1502 1504 1506 1508 1510 1512 1513 1515 1517 1518 1520 1521 1522 1523 1524 1524 1525 1526 1526 1527 1527 1528 1528 1527 1528 1528 1528 1528 1528 1528 1529 1529 1529 1529 1529 1529 1529 1529 1529 1529 1530 1530 1530 1530 1531 1531 1531 1532 1532 1532 1533 1534 1534 1534 1535 1536 1536 1536 1536 1536 1535 1535 1535 1535 1534 1533 1532 1532 1532 1532 1533 1534 1534 1535 1536 1535 1535